QPF
0.00 0.00 0.00 0.00 0.00 0.00 0.00 0.00 0.00 0.00 0.00 0.00 0.00 0.00 0.00 0.00 0.00 0.00 0.00 0.00 0.00 0.00 0.00 0.00 0.00 0.01 0.01 0.00 0.01 0.01 0.01 0.01 0.01 0.02 0.01 0.02 0.02 0.02 0.03 0.02 0.02 0.02 0.01 0.01 0.02 0.03 0.03 0.04 0.03
0.00 0.00 0.00 0.00 0.00 0.00 0.00 0.00 0.00 0.00 0.00 0.00 0.00 0.00 0.00 0.00 0.00 0.00 0.00 0.00 0.00 0.01 0.00 0.00 0.00 0.01 0.01 0.01 0.01 0.01 0.01 0.01 0.01 0.01 0.02 0.01 0.02 0.02 0.02 0.02 0.02 0.02 0.01 0.01 0.02 0.03 0.03 0.03 0.02
0.00 0.00 0.00 0.00 0.00 0.00 0.00 0.00 0.00 0.00 0.00 0.00 0.00 0.00 0.00 0.00 0.00 0.00 0.00 0.00 0.00 0.01 0.01 0.01 0.01 0.01 0.00 0.00 0.00 0.01 0.01 0.01 0.01 0.01 0.02 0.02 0.02 0.02 0.02 0.02 0.02 0.02 0.01 0.01 0.01 0.02 0.03 0.04 0.03
0.00 0.00 0.00 0.00 0.00 0.00 0.00 0.00 0.00 0.00 0.00 0.00 0.00 0.00 0.00 0.00 0.00 0.00 0.00 0.00 0.00 0.01 0.01 0.01 0.01 0.01 0.01 0.01 0.01 0.01 0.01 0.01 0.01 0.01 0.02 0.03 0.02 0.02 0.02 0.02 0.02 0.02 0.02 0.02 0.02 0.02 0.02 0.03 0.02
0.00 0.00 0.00 0.00 0.00 0.00 0.00 0.00 0.00 0.00 0.00 0.00 0.00 0.00 0.00 0.00 0.00 0.00 0.00 0.00 0.00 0.01 0.01 0.01 0.01 0.01 0.01 0.01 0.01 0.01 0.02 0.02 0.01 0.01 0.01 0.02 0.04 0.04 0.04 0.03 0.02 0.02 0.01 0.01 0.01 0.01 0.02 0.02 0.01
0.00 0.00 0.00 0.00 0.00 0.00 0.00 0.00 0.00 0.00 0.00 0.00 0.00 0.00 0.00 0.00 0.00 0.00 0.00 0.00 0.00 0.01 0.01 0.01 0.01 0.01 0.01 0.01 0.02 0.02 0.02 0.02 0.02 0.01 0.01 0.02 0.03 0.04 0.05 0.04 0.02 0.01 0.01 0.01 0.01 0.01 0.01 0.01 0.01
0.00 0.00 0.00 0.00 0.00 0.00 0.00 0.00 0.00 0.00 0.00 0.00 0.00 0.00 0.00 0.00 0.00 0.00 0.00 0.00 0.00 0.01 0.01 0.01 0.01 0.01 0.01 0.01 0.01 0.01 0.01 0.01 0.01 0.01 0.01 0.01 0.02 0.02 0.02 0.03 0.03 0.01 0.01 0.01 0.00 0.01 0.01 0.01 0.01
0.00 0.00 0.00 0.00 0.00 0.00 0.00 0.00 0.00 0.00 0.00 0.00 0.00 0.00 0.00 0.00 0.00 0.00 0.00 0.00 0.00 0.00 0.01 0.01 0.01 0.01 0.01 0.01 0.01 0.01 0.01 0.01 0.01 0.01 0.02 0.01 0.00 0.00 0.00 0.01 0.01 0.01 0.01 0.01 0.00 0.01 0.01 0.01 0.01
0.00 0.00 0.00 0.00 0.00 0.00 0.00 0.00 0.00 0.00 0.00 0.00 0.00 0.00 0.00 0.00 0.00 0.00 0.00 0.00 0.00 0.00 0.01 0.02 0.02 0.02 0.02 0.02 0.01 0.01 0.01 0.01 0.01 0.01 0.02 0.01 0.01 0.01 0.01 0.00 0.00 0.01 0.01 0.00 0.01 0.00 0.01 0.01 0.01
0.00 0.00 0.00 0.00 0.00 0.00 0.00 0.00 0.00 0.00 0.00 0.00 0.00 0.00 0.00 0.00 0.00 0.00 0.00 0.00 0.01 0.01 0.01 0.02 0.03 0.03 0.03 0.03 0.02 0.02 0.02 0.02 0.01 0.01 0.01 0.01 0.02 0.03 0.02 0.02 0.01 0.00 0.00 0.00 0.01 0.00 0.01 0.01 0.01
0.00 0.00 0.00 0.00 0.00 0.00 0.00 0.00 0.00 0.00 0.00 0.00 0.00 0.00 0.00 0.00 0.00 0.00 0.00 0.00 0.01 0.01 0.01 0.01 0.01 0.02 0.03 0.03 0.03 0.03 0.03 0.02 0.02 0.01 0.01 0.01 0.02 0.01 0.01 0.02 0.02 0.01 0.01 0.01 0.01 0.00 0.00 0.01 0.01
0.00 0.00 0.00 0.00 0.00 0.00 0.00 0.00 0.00 0.00 0.00 0.00 0.00 0.00 0.00 0.00 0.00 0.00 0.00 0.00 0.00 0.01 0.01 0.01 0.01 0.01 0.03 0.03 0.03 0.03 0.03 0.03 0.03 0.02 0.01 0.01 0.01 0.01 0.01 0.01 0.01 0.02 0.02 0.02 0.01 0.01 0.00 0.01 0.01
0.00 0.00 0.00 0.00 0.00 0.00 0.00 0.00 0.00 0.00 0.00 0.00 0.00 0.00 0.00 0.00 0.00 0.00 0.00 0.00 0.00 0.00 0.01 0.01 0.01 0.01 0.01 0.02 0.02 0.02 0.02 0.02 0.01 0.02 0.01 0.01 0.01 0.00 0.00 0.00 0.00 0.01 0.01 0.02 0.02 0.02 0.01 0.01 0.01
0.00 0.00 0.00 0.00 0.00 0.00 0.00 0.00 0.00 0.00 0.00 0.00 0.00 0.00 0.00 0.00 0.00 0.00 0.00 0.00 0.00 0.00 0.01 0.00 0.00 0.01 0.01 0.01 0.02 0.02 0.02 0.02 0.02 0.02 0.02 0.01 0.00 0.00 0.00 0.00 0.00 0.00 0.01 0.01 0.02 0.02 0.02 0.02 0.02
0.00 0.00 0.00 0.00 0.00 0.00 0.00 0.00 0.00 0.00 0.00 0.00 0.00 0.00 0.00 0.00 0.00 0.00 0.00 0.00 0.00 0.00 0.00 0.00 0.00 0.00 0.00 0.01 0.01 0.01 0.02 0.02 0.02 0.02 0.02 0.02 0.01 0.00 0.00 0.00 0.00 0.00 0.00 0.00 0.01 0.02 0.02 0.02 0.02
0.00 0.00 0.00 0.00 0.00 0.00 0.00 0.00 0.00 0.00 0.00 0.00 0.00 0.00 0.00 0.00 0.00 0.00 0.00 0.00 0.00 0.00 0.00 0.00 0.00 0.00 0.00 0.00 0.00 0.01 0.01 0.02 0.02 0.02 0.02 0.03 0.02 0.00 0.00 0.00 0.00 0.00 0.00 0.00 0.00 0.01 0.01 0.01 0.02
0.01 0.00 0.00 0.00 0.00 0.00 0.00 0.00 0.00 0.00 0.00 0.00 0.00 0.00 0.00 0.00 0.00 0.00 0.00 0.00 0.00 0.00 0.00 0.00 0.00 0.00 0.00 0.00 0.00 0.00 0.01 0.02 0.01 0.02 0.02 0.02 0.02 0.01 0.01 0.00 0.00 0.00 0.00 0.00 0.00 0.00 0.01 0.01 0.01
0.00 0.00 0.00 0.00 0.00 0.00 0.00 0.00 0.00 0.00 0.00 0.00 0.00 0.00 0.00 0.00 0.00 0.00 0.00 0.00 0.00 0.00 0.00 0.00 0.00 0.00 0.00 0.00 0.00 0.01 0.01 0.02 0.02 0.01 0.02 0.02 0.02 0.02 0.01 0.01 0.00 0.00 0.00 0.00 0.00 0.00 0.00 0.01 0.01
0.00 0.00 0.00 0.00 0.00 0.00 0.00 0.00 0.00 0.00 0.00 0.00 0.00 0.00 0.00 0.00 0.00 0.00 0.00 0.00 0.00 0.00 0.00 0.00 0.00 0.00 0.00 0.00 0.00 0.00 0.01 0.02 0.02 0.02 0.01 0.02 0.02 0.01 0.01 0.01 0.01 0.00 0.00 0.00 0.00 0.00 0.00 0.00 0.01
0.00 0.00 0.00 0.00 0.00 0.00 0.00 0.00 0.00 0.00 0.00 0.00 0.00 0.00 0.00 0.00 0.00 0.00 0.00 0.00 0.00 0.00 0.00 0.00 0.00 0.00 0.00 0.00 0.00 0.00 0.01 0.02 0.02 0.02 0.02 0.02 0.02 0.01 0.01 0.01 0.01 0.01 0.00 0.00 0.00 0.00 0.00 0.00 0.00
0.01 0.00 0.00 0.00 0.00 0.00 0.00 0.00 0.00 0.00 0.00 0.00 0.00 0.00 0.00 0.00 0.00 0.00 0.00 0.00 0.00 0.00 0.00 0.00 0.00 0.00 0.00 0.00 0.00 0.00 0.01 0.02 0.03 0.04 0.03 0.02 0.02 0.01 0.01 0.01 0.01 0.01 0.01 0.01 0.00 0.00 0.00 0.00 0.00
0.03 0.01 0.00 0.00 0.01 0.00 0.00 0.00 0.00 0.00 0.00 0.00 0.00 0.00 0.00 0.00 0.00 0.00 0.00 0.00 0.00 0.00 0.00 0.00 0.00 0.00 0.00 0.00 0.00 0.00 0.01 0.02 0.03 0.03 0.03 0.03 0.02 0.02 0.01 0.01 0.01 0.01 0.01 0.01 0.01 0.01 0.01 0.00 0.00
0.01 0.02 0.01 0.00 0.01 0.01 0.00 0.00 0.00 0.00 0.00 0.00 0.00 0.00 0.00 0.00 0.00 0.00 0.00 0.00 0.00 0.00 0.00 0.00 0.00 0.00 0.00 0.00 0.00 0.00 0.01 0.01 0.03 0.04 0.04 0.03 0.03 0.02 0.01 0.01 0.01 0.01 0.02 0.01 0.01 0.01 0.01 0.01 0.00
0.01 0.01 0.02 0.01 0.01 0.01 0.00 0.00 0.00 0.00 0.00 0.00 0.00 0.00 0.00 0.00 0.00 0.00 0.00 0.00 0.00 0.00 0.00 0.00 0.00 0.00 0.00 0.00 0.00 0.00 0.01 0.01 0.03 0.04 0.04 0.03 0.03 0.02 0.01 0.01 0.01 0.01 0.01 0.01 0.01 0.01 0.01 0.01 0.01
0.01 0.02 0.04 0.05 0.04 0.01 0.00 0.00 0.00 0.00 0.00 0.00 0.00 0.00 0.00 0.00 0.01 0.01 0.01 0.00 0.00 0.00 0.00 0.00 0.00 0.00 0.00 0.00 0.00 0.01 0.01 0.02 0.03 0.03 0.03 0.03 0.03 0.02 0.01 0.01 0.01 0.01 0.01 0.01 0.01 0.01 0.01 0.02 0.02
0.02 0.02 0.02 0.03 0.02 0.00 0.00 0.00 0.00 0.00 0.00 0.00 0.00 0.00 0.00 0.00 0.01 0.02 0.01 0.00 0.00 0.01 0.00 0.00 0.01 0.01 0.01 0.01 0.01 0.01 0.02 0.02 0.03 0.04 0.04 0.03 0.02 0.02 0.01 0.01 0.01 0.01 0.01 0.01 0.01 0.01 0.01 0.01 0.02
0.03 0.03 0.02 0.02 0.02 0.01 0.00 0.00 0.00 0.00 0.00 0.00 0.00 0.00 0.00 0.00 0.01 0.01 0.01 0.01 0.00 0.01 0.00 0.00 0.01 0.01 0.01 0.01 0.02 0.02 0.02 0.03 0.03 0.04 0.04 0.04 0.03 0.02 0.01 0.01 0.01 0.01 0.01 0.02 0.01 0.01 0.01 0.01 0.01
0.02 0.03 0.03 0.05 0.03 0.02 0.01 0.00 0.00 0.00 0.00 0.00 0.00 0.00 0.00 0.00 0.01 0.01 0.01 0.00 0.00 0.00 0.00 0.00 0.00 0.01 0.02 0.03 0.04 0.04 0.03 0.04 0.04 0.04 0.04 0.04 0.04 0.03 0.01 0.01 0.00 0.01 0.01 0.01 0.01 0.01 0.02 0.02 0.02
0.03 0.03 0.04 0.04 0.03 0.02 0.02 0.01 0.00 0.00 0.00 0.00 0.00 0.00 0.00 0.00 0.01 0.00 0.00 0.00 0.00 0.00 0.00 0.00 0.00 0.01 0.01 0.03 0.04 0.05 0.06 0.05 0.06 0.05 0.04 0.04 0.03 0.02 0.01 0.01 0.00 0.00 0.01 0.01 0.01 0.01 0.02 0.02 0.03
0.04 0.03 0.03 0.04 0.03 0.02 0.02 0.02 0.00 0.00 0.00 0.00 0.00 0.00 0.00 0.00 0.00 0.00 0.00 0.00 0.00 0.00 0.00 0.00 0.00 0.01 0.01 0.02 0.02 0.03 0.04 0.06 0.06 0.07 0.06 0.04 0.03 0.02 0.01 0.01 0.01 0.01 0.01 0.01 0.02 0.02 0.02 0.02 0.02
MSLP
1010.22 1010.71 1011.15 1011.43 1011.47 1011.21 1010.67 1009.90 1009.01 1008.14 1007.42 1006.95 1006.78 1006.92 1007.30 1007.83 1008.42 1008.95 1009.37 1009.65 1009.81 1009.89 1009.95 1010.05 1010.23 1010.48 1010.80 1011.14 1011.48 1011.77 1012.01 1012.20 1012.36 1012.50 1012.65 1012.82 1013.00 1013.18 1013.33 1013.44 1013.51 1013.53 1013.53 1013.53 1013.54 1013.56 1013.61 1013.67 1013.71
1010.31 1010.78 1011.13 1011.27 1011.11 1010.66 1009.94 1009.05 1008.12 1007.29 1006.69 1006.40 1006.43 1006.75 1007.27 1007.91 1008.53 1009.06 1009.45 1009.71 1009.85 1009.95 1010.06 1010.23 1010.48 1010.81 1011.18 1011.55 1011.89 1012.17 1012.39 1012.56 1012.71 1012.85 1013.01 1013.18 1013.36 1013.52 1013.65 1013.73 1013.76 1013.75 1013.73 1013.71 1013.71 1013.73 1013.77 1013.81 1013.83
1010.40 1010.81 1011.03 1010.99 1010.65 1010.01 1009.16 1008.21 1007.30 1006.57 1006.13 1006.03 1006.25 1006.74 1007.38 1008.07 1008.69 1009.19 1009.53 1009.74 1009.87 1009.99 1010.15 1010.40 1010.73 1011.13 1011.56 1011.96 1012.31 1012.58 1012.78 1012.94 1013.07 1013.21 1013.38 1013.56 1013.74 1013.90 1014.01 1014.06 1014.06 1014.02 1013.97 1013.93 1013.92 1013.94 1013.97 1013.99 1013.98
1010.47 1010.78 1010.85 1010.64 1010.12 1009.35 1008.41 1007.45 1006.61 1006.03 1005.77 1005.87 1006.27 1006.88 1007.60 1008.30 1008.89 1009.33 1009.61 1009.77 1009.89 1010.04 1010.26 1010.58 1011.00 1011.47 1011.95 1012.38 1012.73 1012.99 1013.17 1013.31 1013.44 1013.58 1013.76 1013.95 1014.14 1014.30 1014.41 1014.44 1014.42 1014.35 1014.28 1014.22 1014.20 1014.19 1014.21 1014.20 1014.16
1010.49 1010.67 1010.60 1010.22 1009.56 1008.70 1007.74 1006.83 1006.11 1005.69 1005.62 1005.89 1006.43 1007.14 1007.89 1008.57 1009.10 1009.47 1009.68 1009.81 1009.94 1010.12 1010.41 1010.81 1011.31 1011.84 1012.36 1012.80 1013.14 1013.38 1013.54 1013.66 1013.78 1013.94 1014.13 1014.34 1014.55 1014.72 1014.82 1014.85 1014.81 1014.73 1014.65 1014.57 1014.52 1014.50 1014.48 1014.45 1014.38
1010.42 1010.48 1010.26 1009.76 1009.00 1008.10 1007.17 1006.35 1005.78 1005.53 1005.63 1006.05 1006.69 1007.44 1008.19 1008.82 1009.29 1009.59 1009.76 1009.88 1010.02 1010.26 1010.62 1011.10 1011.66 1012.25 1012.78 1013.21 1013.54 1013.75 1013.88 1013.99 1014.11 1014.27 1014.48 1014.71 1014.93 1015.12 1015.23 1015.26 1015.23 1015.14 1015.04 1014.95 1014.88 1014.83 1014.78 1014.72 1014.61
1010.24 1010.18 1009.85 1009.25 1008.46 1007.57 1006.72 1006.03 1005.60 1005.52 1005.76 1006.28 1006.97 1007.73 1008.43 1009.01 1009.41 1009.66 1009.82 1009.95 1010.15 1010.45 1010.89 1011.44 1012.06 1012.66 1013.19 1013.61 1013.90 1014.08 1014.18 1014.28 1014.39 1014.57 1014.79 1015.04 1015.28 1015.48 1015.61 1015.65 1015.62 1015.53 1015.43 1015.33 1015.24 1015.16 1015.08 1014.98 1014.84
1009.95 1009.79 1009.37 1008.73 1007.94 1007.12 1006.37 1005.82 1005.55 1005.60 1005.94 1006.51 1007.21 1007.93 1008.58 1009.09 1009.44 1009.68 1009.84 1010.03 1010.29 1010.68 1011.19 1011.80 1012.44 1013.05 1013.56 1013.95 1014.20 1014.35 1014.44 1014.52 1014.64 1014.82 1015.06 1015.33 1015.59 1015.79 1015.93 1015.98 1015.95 1015.87 1015.77 1015.66 1015.56 1015.47 1015.36 1015.23 1015.07
1009.57 1009.33 1008.86 1008.22 1007.48 1006.75 1006.13 1005.72 1005.58 1005.73 1006.12 1006.69 1007.36 1008.01 1008.58 1009.03 1009.36 1009.60 1009.81 1010.07 1010.42 1010.89 1011.47 1012.12 1012.77 1013.37 1013.85 1014.20 1014.42 1014.55 1014.62 1014.71 1014.85 1015.04 1015.29 1015.57 1015.83 1016.04 1016.18 1016.23 1016.21 1016.14 1016.04 1015.94 1015.84 1015.73 1015.61 1015.47 1015.29
1009.14 1008.84 1008.36 1007.75 1007.09 1006.48 1006.00 1005.71 1005.67 1005.87 1006.27 1006.80 1007.38 1007.95 1008.45 1008.85 1009.16 1009.43 1009.71 1010.05 1010.49 1011.04 1011.67 1012.35 1013.00 1013.57 1014.02 1014.34 1014.54 1014.66 1014.74 1014.85 1015.01 1015.22 1015.49 1015.77 1016.02 1016.23 1016.36 1016.41 1016.39 1016.33 1016.25 1016.16 1016.06 1015.96 1015.84 1015.69 1015.51
1008.70 1008.38 1007.91 1007.36 1006.80 1006.31 1005.95 1005.77 1005.79 1006.01 1006.36 1006.81 1007.30 1007.76 1008.18 1008.53 1008.85 1009.17 1009.52 1009.95 1010.48 1011.09 1011.76 1012.44 1013.08 1013.62 1014.04 1014.34 1014.54 1014.68 1014.80 1014.94 1015.13 1015.38 1015.65 1015.93 1016.18 1016.37 1016.48 1016.53 1016.52 1016.47 1016.41 1016.34 1016.26 1016.17 1016.06 1015.92 1015.75
1008.28 1007.96 1007.53 1007.06 1006.61 1006.24 1005.99 1005.89 1005.94 1006.12 1006.40 1006.75 1007.11 1007.47 1007.81 1008.13 1008.46 1008.83 1009.26 1009.77 1010.36 1011.02 1011.71 1012.39 1013.00 1013.52 1013.92 1014.23 1014.45 1014.63 1014.80 1015.00 1015.24 1015.51 1015.80 1016.08 1016.31 1016.48 1016.58 1016.62 1016.61 1016.58 1016.54 1016.50 1016.45 1016.39 1016.29 1016.17 1016.02
1007.92 1007.61 1007.24 1006.86 1006.52 1006.26 1006.09 1006.04 1006.08 1006.21 1006.39 1006.61 1006.85 1007.10 1007.37 1007.67 1008.01 1008.43 1008.92 1009.50 1010.15 1010.84 1011.53 1012.20 1012.79 1013.29 1013.70 1014.03 1014.30 1014.54 1014.78 1015.05 1015.34 1015.64 1015.94 1016.21 1016.43 1016.59 1016.68 1016.71 1016.72 1016.71 1016.69 1016.68 1016.66 1016.63 1016.56 1016.46 1016.32
1007.60 1007.32 1007.01 1006.73 1006.49 1006.32 1006.22 1006.18 1006.19 1006.24 1006.31 1006.40 1006.52 1006.68 1006.89 1007.16 1007.53 1007.99 1008.53 1009.16 1009.84 1010.55 1011.24 1011.89 1012.47 1012.98 1013.42 1013.79 1014.12 1014.44 1014.76 1015.10 1015.44 1015.77 1016.08 1016.34 1016.55 1016.69 1016.78 1016.82 1016.85 1016.86 1016.88 1016.90 1016.92 1016.91 1016.87 1016.78 1016.66
1007.31 1007.07 1006.83 1006.64 1006.49 1006.39 1006.33 1006.28 1006.24 1006.19 1006.14 1006.12 1006.13 1006.20 1006.37 1006.63 1007.01 1007.51 1008.10 1008.75 1009.45 1010.17 1010.86 1011.51 1012.11 1012.64 1013.12 1013.56 1013.97 1014.37 1014.77 1015.16 1015.54 1015.90 1016.21 1016.47 1016.66 1016.80 1016.89 1016.96 1017.01 1017.06 1017.11 1017.17 1017.21 1017.23 1017.21 1017.14 1017.04
1007.02 1006.82 1006.66 1006.55 1006.48 1006.43 1006.38 1006.30 1006.19 1006.04 1005.88 1005.75 1005.67 1005.68 1005.81 1006.07 1006.47 1006.99 1007.61 1008.29 1009.00 1009.72 1010.42 1011.09 1011.71 1012.29 1012.84 1013.36 1013.86 1014.34 1014.80 1015.24 1015.64 1016.00 1016.31 1016.55 1016.75 1016.89 1017.01 1017.10 1017.19 1017.28 1017.38 1017.46 1017.54 1017.57 1017.57 1017.52 1017.44
1006.71 1006.57 1006.49 1006.46 1006.45 1006.43 1006.37 1006.24 1006.04 1005.78 1005.52 1005.28 1005.12 1005.09 1005.20 1005.46 1005.88 1006.42 1007.06 1007.76 1008.49 1009.22 1009.93 1010.63 1011.30 1011.96 1012.58 1013.19 1013.77 1014.32 1014.84 1015.30 1015.71 1016.06 1016.35 1016.59 1016.78 1016.95 1017.09 1017.23 1017.37 1017.51 1017.64 1017.76 1017.86 1017.92 1017.93 1017.90 1017.83
1006.40 1006.33 1006.34 1006.38 1006.41 1006.40 1006.30 1006.09 1005.79 1005.43 1005.05 1004.73 1004.50 1004.43 1004.53 1004.81 1005.24 1005.81 1006.46 1007.17 1007.91 1008.65 1009.40 1010.14 1010.88 1011.62 1012.33 1013.03 1013.69 1014.30 1014.84 1015.31 1015.71 1016.04 1016.31 1016.54 1016.75 1016.94 1017.13 1017.32 1017.52 1017.70 1017.88 1018.03 1018.15 1018.23 1018.26 1018.25 1018.21
1006.10 1006.13 1006.22 1006.33 1006.39 1006.36 1006.20 1005.90 1005.49 1005.00 1004.52 1004.11 1003.84 1003.74 1003.84 1004.12 1004.57 1005.15 1005.81 1006.53 1007.27 1008.04 1008.82 1009.62 1010.43 1011.25 1012.05 1012.83 1013.56 1014.21 1014.77 1015.24 1015.61 1015.92 1016.17 1016.40 1016.63 1016.86 1017.10 1017.35 1017.60 1017.84 1018.06 1018.24 1018.38 1018.48 1018.53 1018.56 1018.56
1005.87 1006.00 1006.18 1006.35 1006.42 1006.36 1006.12 1005.71 1005.17 1004.57 1003.98 1003.49 1003.17 1003.05 1003.15 1003.44 1003.90 1004.49 1005.15 1005.87 1006.62 1007.40 1008.21 1009.05 1009.93 1010.83 1011.71 1012.57 1013.35 1014.03 1014.60 1015.06 1015.41 1015.70 1015.94 1016.18 1016.43 1016.70 1017.00 1017.31 1017.62 1017.91 1018.16 1018.36 1018.52 1018.64 1018.73 1018.80 1018.84
1005.71 1005.97 1006.24 1006.46 1006.54 1006.43 1006.10 1005.57 1004.90 1004.18 1003.50 1002.94 1002.58 1002.44 1002.54 1002.84 1003.30 1003.88 1004.54 1005.24 1005.98 1006.76 1007.58 1008.46 1009.39 1010.34 1011.29 1012.20 1013.02 1013.73 1014.31 1014.76 1015.10 1015.38 1015.63 1015.88 1016.16 1016.48 1016.83 1017.20 1017.56 1017.88 1018.16 1018.39 1018.57 1018.71 1018.83 1018.95 1019.05
1005.66 1006.04 1006.41 1006.67 1006.74 1006.57 1006.15 1005.52 1004.73 1003.90 1003.14 1002.53 1002.14 1001.99 1002.09 1002.39 1002.85 1003.42 1004.05 1004.72 1005.42 1006.18 1007.00 1007.88 1008.83 1009.81 1010.80 1011.74 1012.59 1013.32 1013.91 1014.36 1014.71 1014.99 1015.25 1015.54 1015.86 1016.22 1016.62 1017.04 1017.43 1017.78 1018.08 1018.31 1018.51 1018.67 1018.83 1018.99 1019.16
1005.69 1006.19 1006.63 1006.93 1006.99 1006.77 1006.27 1005.54 1004.67 1003.76 1002.95 1002.31 1001.91 1001.77 1001.87 1002.17 1002.62 1003.16 1003.75 1004.36 1005.02 1005.72 1006.50 1007.35 1008.29 1009.27 1010.26 1011.21 1012.08 1012.81 1013.41 1013.88 1014.24 1014.55 1014.85 1015.17 1015.54 1015.95 1016.39 1016.83 1017.25 1017.61 1017.91 1018.15 1018.35 1018.53 1018.72 1018.93 1019.16
1005.77 1006.35 1006.85 1007.17 1007.21 1006.96 1006.41 1005.62 1004.70 1003.77 1002.94 1002.31 1001.93 1001.81 1001.92 1002.23 1002.66 1003.16 1003.68 1004.23 1004.81 1005.43 1006.13 1006.93 1007.81 1008.75 1009.72 1010.65 1011.51 1012.25 1012.86 1013.35 1013.74 1014.09 1014.43 1014.80 1015.21 1015.66 1016.13 1016.59 1017.01 1017.37 1017.67 1017.90 1018.10 1018.29 1018.51 1018.76 1019.04
1005.85 1006.48 1007.00 1007.32 1007.36 1007.08 1006.51 1005.72 1004.80 1003.90 1003.11 1002.53 1002.20 1002.12 1002.27 1002.58 1002.98 1003.43 1003.89 1004.35 1004.82 1005.34 1005.94 1006.63 1007.43 1008.30 1009.20 1010.09 1010.92 1011.65 1012.27 1012.77 1013.21 1013.60 1013.99 1014.41 1014.86 1015.35 1015.84 1016.31 1016.73 1017.08 1017.36 1017.59 1017.78 1017.98 1018.21 1018.49 1018.80
1005.91 1006.53 1007.04 1007.34 1007.36 1007.09 1006.54 1005.79 1004.94 1004.12 1003.43 1002.95 1002.71 1002.70 1002.88 1003.20 1003.58 1003.97 1004.34 1004.69 1005.05 1005.44 1005.91 1006.48 1007.16 1007.93 1008.74 1009.56 1010.34 1011.04 1011.65 1012.18 1012.64 1013.08 1013.52 1013.99 1014.48 1015.00 1015.51 1015.98 1016.39 1016.73 1017.00 1017.22 1017.41 1017.62 1017.86 1018.15 1018.47
1005.94 1006.50 1006.96 1007.22 1007.23 1006.98 1006.48 1005.83 1005.10 1004.42 1003.88 1003.54 1003.41 1003.49 1003.72 1004.04 1004.38 1004.71 1004.99 1005.23 1005.46 1005.72 1006.04 1006.47 1007.01 1007.65 1008.35 1009.07 1009.78 1010.43 1011.02 1011.55 1012.04 1012.52 1013.00 1013.51 1014.04 1014.58 1015.10 1015.58 1016.00 1016.33 1016.60 1016.82 1017.01 1017.22 1017.47 1017.76 1018.08
1006.00 1006.45 1006.82 1007.02 1007.02 1006.79 1006.38 1005.85 1005.29 1004.79 1004.43 1004.25 1004.26 1004.43 1004.71 1005.03 1005.34 1005.60 1005.78 1005.90 1006.00 1006.11 1006.30 1006.57 1006.97 1007.46 1008.03 1008.64 1009.25 1009.84 1010.39 1010.90 1011.40 1011.89 1012.41 1012.95 1013.51 1014.07 1014.62 1015.11 1015.54 1015.89 1016.16 1016.39 1016.60 1016.82 1017.07 1017.35 1017.65
1006.17 1006.48 1006.73 1006.85 1006.81 1006.62 1006.30 1005.92 1005.54 1005.25 1005.09 1005.08 1005.23 1005.49 1005.81 1006.13 1006.39 1006.56 1006.64 1006.65 1006.62 1006.60 1006.64 1006.77 1007.01 1007.36 1007.79 1008.27 1008.77 1009.27 1009.76 1010.24 1010.72 1011.22 1011.75 1012.31 1012.90 1013.49 1014.06 1014.58 1015.03 1015.41 1015.71 1015.96 1016.20 1016.43 1016.68 1016.95 1017.22
1006.55 1006.69 1006.79 1006.81 1006.73 1006.56 1006.34 1006.10 1005.91 1005.81 1005.85 1006.01 1006.28 1006.62 1006.96 1007.26 1007.47 1007.56 1007.54 1007.43 1007.28 1007.13 1007.04 1007.04 1007.14 1007.35 1007.63 1007.98 1008.36 1008.76 1009.18 1009.60 1010.05 1010.54 1011.07 1011.65 1012.25 1012.87 1013.47 1014.02 1014.50 1014.91 1015.26 1015.55 1015.81 1016.06 1016.30 1016.55 1016.79
Thickness
5710 5715 5718 5714 5701 5696 5705 5730 5749 5751 5755 5763 5765 5763 5757 5748 5743 5729 5744 5758 5758 5755 5752 5750 5749 5749 5748 5747 5747 5746 5746 5746 5745 5745 5745 5744 5744 5744 5743 5743 5742 5742 5741 5741 5740 5740 5739 5739 5738
5707 5713 5710 5703 5691 5690 5709 5732 5742 5748 5754 5757 5757 5756 5752 5743 5746 5743 5747 5752 5753 5751 5748 5746 5745 5744 5743 5742 5742 5741 5741 5741 5741 5740 5740 5740 5740 5739 5739 5739 5738 5737 5737 5736 5736 5735 5735 5734 5734
5703 5708 5700 5695 5694 5700 5718 5739 5742 5746 5751 5749 5746 5749 5745 5738 5743 5742 5746 5749 5748 5745 5743 5741 5740 5739 5738 5737 5737 5736 5736 5736 5736 5736 5735 5735 5735 5735 5734 5734 5733 5733 5732 5732 5731 5731 5730 5730 5729
5698 5695 5694 5691 5696 5715 5727 5735 5739 5738 5740 5744 5740 5734 5736 5741 5743 5742 5744 5745 5743 5740 5737 5735 5734 5733 5732 5732 5731 5731 5731 5730 5730 5730 5730 5730 5730 5729 5729 5729 5728 5728 5728 5727 5727 5726 5726 5726 5725
5691 5686 5681 5684 5697 5716 5731 5736 5735 5730 5730 5734 5734 5725 5722 5732 5739 5739 5739 5740 5737 5734 5732 5729 5729 5728 5727 5726 5726 5725 5725 5725 5725 5724 5724 5724 5724 5724 5724 5723 5723 5723 5723 5723 5722 5722 5721 5721 5721
5679 5682 5676 5681 5698 5715 5726 5732 5730 5725 5727 5730 5728 5721 5716 5727 5729 5731 5734 5734 5732 5729 5726 5724 5723 5722 5721 5721 5720 5720 5719 5719 5719 5719 5719 5719 5718 5718 5718 5718 5718 5718 5717 5717 5717 5717 5717 5716 5716
5671 5673 5675 5688 5697 5708 5721 5728 5722 5719 5719 5723 5727 5716 5711 5718 5723 5726 5727 5727 5726 5723 5720 5718 5717 5716 5715 5715 5714 5713 5713 5713 5713 5713 5712 5712 5713 5712 5712 5712 5712 5712 5712 5712 5712 5712 5712 5711 5711
5672 5670 5675 5684 5691 5701 5714 5719 5718 5714 5714 5725 5725 5712 5705 5712 5719 5720 5719 5719 5718 5716 5715 5713 5712 5711 5710 5709 5708 5708 5707 5707 5707 5707 5707 5707 5707 5707 5707 5707 5707 5707 5707 5707 5707 5707 5706 5706 5707
5666 5657 5665 5681 5688 5696 5705 5705 5707 5710 5708 5712 5715 5710 5714 5714 5713 5710 5708 5707 5708 5708 5708 5708 5707 5706 5705 5704 5703 5702 5702 5702 5701 5701 5702 5702 5702 5702 5701 5701 5701 5701 5701 5701 5701 5702 5702 5702 5702
5653 5648 5666 5682 5687 5689 5694 5695 5695 5695 5694 5697 5699 5702 5706 5705 5703 5700 5699 5698 5698 5699 5701 5701 5701 5700 5699 5699 5698 5697 5697 5696 5696 5696 5696 5696 5696 5696 5696 5696 5696 5696 5696 5696 5696 5696 5696 5696 5696
5651 5653 5667 5676 5681 5681 5682 5684 5688 5685 5683 5690 5691 5692 5695 5695 5694 5694 5694 5694 5693 5694 5694 5694 5694 5694 5693 5693 5692 5692 5691 5691 5691 5691 5691 5691 5691 5691 5690 5690 5690 5690 5690 5690 5690 5691 5691 5691 5691
5649 5656 5662 5666 5669 5669 5670 5675 5677 5678 5683 5693 5694 5693 5691 5688 5688 5688 5689 5689 5689 5688 5687 5688 5688 5687 5687 5686 5686 5685 5685 5685 5685 5685 5685 5685 5684 5684 5684 5684 5684 5684 5684 5684 5684 5685 5685 5685 5686
5640 5647 5655 5658 5659 5660 5661 5663 5667 5674 5683 5687 5688 5686 5685 5684 5684 5685 5686 5687 5685 5683 5681 5681 5681 5680 5680 5680 5679 5679 5679 5679 5678 5678 5678 5678 5677 5677 5677 5677 5677 5677 5678 5678 5678 5678 5679 5679 5679
5638 5641 5645 5648 5650 5652 5651 5655 5658 5670 5677 5678 5678 5677 5679 5679 5680 5679 5680 5680 5680 5678 5676 5675 5675 5674 5673 5673 5673 5673 5672 5672 5672 5671 5671 5671 5671 5670 5670 5670 5670 5670 5670 5671 5671 5671 5671 5672 5672
5629 5626 5631 5640 5643 5646 5644 5644 5654 5667 5670 5670 5671 5673 5674 5675 5676 5675 5675 5675 5675 5673 5672 5670 5669 5668 5667 5666 5666 5666 5666 5665 5665 5665 5664 5664 5664 5664 5663 5662 5662 5663 5663 5663 5663 5663 5663 5663 5664
5614 5612 5615 5636 5639 5639 5630 5634 5657 5666 5664 5663 5666 5667 5668 5670 5672 5672 5673 5672 5671 5669 5666 5664 5664 5662 5661 5660 5660 5659 5659 5658 5658 5657 5657 5657 5657 5657 5656 5655 5655 5655 5655 5655 5654 5654 5653 5653 5653
5600 5602 5612 5625 5635 5634 5626 5632 5650 5661 5660 5658 5660 5662 5663 5664 5666 5668 5668 5667 5665 5663 5661 5658 5657 5655 5654 5653 5653 5652 5652 5651 5650 5650 5649 5650 5649 5649 5649 5647 5647 5647 5647 5646 5645 5645 5643 5643 5643
5596 5601 5612 5617 5626 5626 5622 5628 5640 5649 5652 5653 5655 5657 5657 5659 5661 5663 5662 5661 5659 5657 5654 5652 5650 5648 5647 5646 5645 5644 5643 5643 5643 5642 5642 5642 5642 5641 5640 5639 5639 5638 5637 5636 5635 5634 5634 5633 5633
5598 5600 5603 5612 5619 5617 5616 5622 5632 5640 5643 5645 5648 5650 5652 5654 5657 5657 5656 5655 5652 5649 5647 5645 5642 5641 5640 5638 5635 5634 5633 5634 5634 5634 5634 5634 5633 5633 5632 5631 5630 5629 5628 5626 5625 5624 5623 5622 5621
5585 5585 5592 5600 5607 5607 5607 5615 5627 5635 5639 5641 5643 5645 5647 5648 5649 5649 5648 5646 5644 5642 5639 5637 5635 5634 5633 5631 5629 5627 5626 5626 5626 5626 5626 5625 5625 5625 5624 5623 5621 5620 5618 5617 5615 5614 5611 5610 5609
5576 5577 5582 5586 5589 5594 5594 5600 5617 5630 5636 5639 5641 5642 5642 5642 5641 5640 5639 5637 5635 5633 5631 5631 5628 5626 5625 5623 5621 5620 5617 5616 5615 5615 5616 5617 5617 5616 5615 5614 5612 5611 5609 5607 5605 5603 5601 5598 5597
5563 5576 5577 5576 5570 5571 5581 5574 5609 5621 5625 5629 5631 5633 5633 5635 5634 5632 5631 5628 5626 5624 5623 5621 5620 5618 5617 5615 5613 5611 5608 5606 5607 5608 5607 5608 5608 5607 5606 5605 5603 5601 5600 5597 5595 5594 5591 5588 5585
5558 5566 5566 5564 5560 5558 5570 5565 5590 5611 5613 5619 5622 5625 5625 5625 5624 5623 5621 5619 5617 5615 5613 5612 5610 5609 5607 5606 5604 5602 5600 5599 5599 5599 5598 5598 5598 5597 5597 5595 5594 5592 5590 5588 5586 5583 5581 5578 5575
5549 5548 5548 5548 5544 5537 5562 5560 5578 5599 5608 5612 5615 5617 5615 5614 5614 5613 5611 5609 5606 5604 5602 5601 5599 5598 5597 5595 5594 5592 5591 5590 5589 5588 5587 5587 5587 5587 5587 5585 5584 5582 5580 5578 5575 5573 5571 5568 5566
5534 5526 5520 5519 5520 5534 5568 5564 5576 5597 5606 5606 5605 5605 5603 5603 5601 5600 5598 5596 5594 5593 5591 5590 5588 5586 5585 5584 5583 5582 5581 5580 5579 5578 5578 5577 5577 5576 5576 5575 5573 5571 5569 5567 5565 5563 5560 5558 5555
5521 5523 5519 5516 5525 5541 5560 5559 5575 5590 5594 5595 5595 5592 5591 5590 5588 5587 5586 5584 5583 5581 5579 5578 5576 5575 5574 5573 5572 5572 5571 5570 5569 5568 5567 5567 5567 5567 5566 5564 5563 5561 5559 5557 5554 5552 5550 5548 5545
5511 5514 5528 5523 5526 5527 5542 5560 5564 5578 5578 5580 5580 5578 5576 5576 5576 5574 5574 5573 5571 5568 5567 5565 5564 5564 5563 5562 5562 5561 5560 5559 5558 5557 5556 5556 5557 5557 5556 5554 5552 5551 5549 5546 5544 5542 5540 5537 5535
5506 5511 5507 5504 5508 5519 5542 5550 5549 5552 5560 5565 5565 5563 5563 5563 5562 5561 5560 5560 5558 5557 5555 5554 5553 5552 5551 5551 5550 5549 5548 5547 5546 5545 5545 5545 5546 5545 5544 5543 5542 5540 5538 5536 5534 5532 5530 5527 5526
5491 5494 5497 5498 5506 5512 5524 5532 5545 5545 5550 5551 5550 5551 5551 5550 5549 5547 5547 5547 5546 5545 5543 5542 5541 5541 5540 5538 5538 5536 5535 5535 5534 5534 5534 5534 5534 5534 5533 5532 5531 5529 5527 5525 5522 5521 5519 5517 5515
5484 5487 5486 5483 5489 5503 5509 5510 5531 5534 5536 5536 5535 5538 5538 5537 5536 5535 5535 5534 5533 5532 5531 5530 5529 5528 5527 5526 5526 5524 5524 5523 5523 5523 5522 5522 5523 5523 5522 5521 5520 5518 5516 5514 5511 5508 5507 5505 5504